Weather History for Mosby, MO

Change the Weather History Date:

Sunday, December 23, 2012

  Actual Average (KMKC) Record (KMKC)
Temperature  
Mean Temperature 26 °F -  
Max Temperature 32 °F 37 °F 52 °F (2005)
Min Temperature 21 °F 21 °F 5 °F (2004)
Degree Days  
Heating Degree Days 38    
Moisture  
Dew Point 23 °F    
Average Humidity 84    
Maximum Humidity 100    
Minimum Humidity 69    
Precipitation  
Precipitation 0.00 in - - ()
Sea Level Pressure  
Sea Level Pressure 29.95 in    
Wind  
Wind Speed 3 mph (NNW)    
Max Wind Speed 8 mph    
Max Gust Speed -    
Visibility 10 miles    
Events      
Averages and records for this station are not official NWS values.
T = Trace of Precipitation, MM = Missing Value Source: NWS Daily Summary

Daily Weather History Graph

Daily Weather History Graph

Search for Another Location

Airport:

Trip Planner

Search our weather history database for the weather conditions in past years. The results will help you decide how hot, cold, wet, or windy it might be!

Date:

Astronomy

Dec. 23, 2012 Rise Set
Actual Time 7:34 AM CST 4:58 PM CST
Civil Twilight 7:04 AM CST 5:28 PM CST
Nautical Twilight 6:30 AM CST 6:02 PM CST
Astronomical Twilight 5:58 AM CST 6:35 PM CST
Moon 1:49 PM CST (12/23) 3:18 AM CST (12/23)
Length of Visible Light 10h 24m
Length of Day
9h 23m
Waxing Gibbous, 82% of the Moon is Illuminated
Dec 23
Waxing Gibbous
Dec 28
Full
Jan 4
Last Quarter
Jan 11
New
Jan 18
First Quarter

Hourly Weather History & Observations

Time (CST) Temp. Windchill Dew Point Humidity Pressure Visibility Wind Dir Wind Speed Gust Speed Precip Events Conditions
12:15 AM 26.6 °F - 26.6 °F 100% 29.94 in 10.0 mi Calm Calm - N/A   Clear
12:35 AM 26.6 °F - 24.8 °F 93% 29.94 in 10.0 mi Calm Calm - N/A   Clear
12:55 AM 26.6 °F - 24.8 °F 93% 29.94 in 10.0 mi Calm Calm - N/A   Clear
1:15 AM 24.8 °F - 23.0 °F 93% 29.95 in 10.0 mi Calm Calm - N/A   Clear
1:35 AM 24.8 °F - 23.0 °F 93% 29.95 in 10.0 mi Calm Calm - N/A   Clear
1:55 AM 24.8 °F - 23.0 °F 93% 29.95 in 10.0 mi Calm Calm - N/A   Clear
2:15 AM 23.0 °F - 23.0 °F 100% 29.96 in 10.0 mi Calm Calm - N/A   Clear
2:35 AM 23.0 °F - 23.0 °F 100% 29.96 in 10.0 mi Calm Calm - N/A   Clear
2:55 AM 23.0 °F 18.4 °F 23.0 °F 100% 29.96 in 10.0 mi NW 3.5 mph - N/A   Clear
3:15 AM 24.8 °F - 23.0 °F 93% 29.96 in 10.0 mi Calm Calm - N/A   Clear
3:55 AM 23.0 °F - 23.0 °F 100% 29.96 in 10.0 mi Calm Calm - N/A   Clear
4:15 AM 23.0 °F - 23.0 °F 100% 29.95 in 10.0 mi Calm Calm - N/A   Clear
4:35 AM 23.0 °F - 23.0 °F 100% 29.94 in 7.0 mi Calm Calm - N/A   Clear
4:55 AM 23.0 °F - 21.2 °F 93% 29.95 in 7.0 mi Calm Calm - N/A   Clear
5:15 AM 23.0 °F - 21.2 °F 93% 29.95 in 10.0 mi Calm Calm - N/A   Clear
5:35 AM 21.2 °F 16.4 °F 21.2 °F 100% 29.96 in 7.0 mi NW 3.5 mph - N/A   Clear
5:55 AM 23.0 °F 17.0 °F 21.2 °F 93% 29.96 in 7.0 mi NNW 4.6 mph - N/A   Clear
6:15 AM 23.0 °F 18.4 °F 21.2 °F 93% 29.97 in 7.0 mi NW 3.5 mph - N/A   Clear
6:35 AM 23.0 °F 18.4 °F 21.2 °F 93% 29.97 in 7.0 mi NNW 3.5 mph - N/A   Clear
6:55 AM 23.0 °F 17.0 °F 21.2 °F 93% 29.97 in 7.0 mi NNW 4.6 mph - N/A   Clear
7:15 AM 23.0 °F 17.0 °F 21.2 °F 93% 29.98 in 7.0 mi NNW 4.6 mph - N/A   Clear
7:55 AM 21.2 °F 14.9 °F 21.2 °F 100% 30.00 in 7.0 mi NNW 4.6 mph - N/A   Clear
8:15 AM 21.2 °F 14.9 °F 21.2 °F 100% 30.00 in 7.0 mi North 4.6 mph - N/A   Clear
8:35 AM 23.0 °F 13.9 °F 21.2 °F 93% 29.99 in 7.0 mi North 8.1 mph - N/A   Clear
8:55 AM 23.0 °F 13.9 °F 21.2 °F 93% 30.00 in 7.0 mi North 8.1 mph - N/A   Clear
9:15 AM 23.0 °F 14.7 °F 21.2 °F 93% 30.00 in 10.0 mi North 6.9 mph - N/A   Clear
9:35 AM 24.8 °F 16.9 °F 21.2 °F 86% 30.01 in 10.0 mi North 6.9 mph - N/A   Clear
9:55 AM 24.8 °F 16.9 °F 21.2 °F 86% 30.01 in 10.0 mi North 6.9 mph - N/A   Clear
10:15 AM 26.6 °F 20.0 °F 21.2 °F 80% 30.01 in 10.0 mi NNE 5.8 mph - N/A   Clear
10:35 AM 26.6 °F 21.2 °F 21.2 °F 80% 30.00 in 10.0 mi North 4.6 mph - N/A   Clear
10:55 AM 28.4 °F - 21.2 °F 74% 30.00 in 10.0 mi Calm Calm - N/A   Clear
11:15 AM 28.4 °F 24.6 °F 21.2 °F 74% 29.99 in 10.0 mi NNE 3.5 mph - N/A   Clear
11:35 AM 28.4 °F 24.6 °F 23.0 °F 80% 29.97 in 10.0 mi NNE 3.5 mph - N/A   Clear
11:55 AM 30.2 °F 26.7 °F 23.0 °F 75% 29.95 in 10.0 mi North 3.5 mph - N/A   Clear
12:15 PM 30.2 °F 23.4 °F 23.0 °F 75% 29.93 in 10.0 mi North 6.9 mph - N/A   Clear
12:35 PM 30.2 °F 23.4 °F 23.0 °F 75% 29.93 in 10.0 mi North 6.9 mph - N/A   Clear
12:55 PM 32.0 °F 26.4 °F 23.0 °F 69% 29.93 in 10.0 mi NNW 5.8 mph - N/A   Clear
1:15 PM 32.0 °F 25.6 °F 23.0 °F 69% 29.92 in 10.0 mi North 6.9 mph - N/A   Clear
1:35 PM 32.0 °F 26.4 °F 23.0 °F 69% 29.92 in 10.0 mi NNE 5.8 mph - N/A   Clear
1:55 PM 32.0 °F 27.5 °F 23.0 °F 69% 29.92 in 10.0 mi NNW 4.6 mph - N/A   Clear
2:15 PM 32.0 °F 27.5 °F 23.0 °F 69% 29.92 in 10.0 mi North 4.6 mph - N/A   Clear
2:35 PM 32.0 °F 26.4 °F 24.8 °F 75% 29.92 in 10.0 mi North 5.8 mph - N/A   Clear
2:55 PM 32.0 °F 25.6 °F 23.0 °F 69% 29.92 in 10.0 mi NNW 6.9 mph - N/A   Clear
3:15 PM 32.0 °F 26.4 °F 23.0 °F 69% 29.92 in 10.0 mi North 5.8 mph - N/A   Clear
3:35 PM 32.0 °F 26.4 °F 23.0 °F 69% 29.92 in 10.0 mi NNE 5.8 mph - N/A   Clear
3:55 PM 32.0 °F 27.5 °F 23.0 °F 69% 29.93 in 10.0 mi North 4.6 mph - N/A   Clear
4:15 PM 32.0 °F 26.4 °F 23.0 °F 69% 29.93 in 10.0 mi North 5.8 mph - N/A   Clear
4:55 PM 32.0 °F 27.5 °F 23.0 °F 69% 29.92 in 10.0 mi North 4.6 mph - N/A   Clear
5:15 PM 30.2 °F 26.7 °F 24.8 °F 80% 29.92 in 10.0 mi NNE 3.5 mph - N/A   Clear
5:35 PM 30.2 °F - 23.0 °F 75% 29.93 in 10.0 mi Calm Calm - N/A   Clear
5:55 PM 30.2 °F 26.7 °F 23.0 °F 75% 29.94 in 10.0 mi NNW 3.5 mph - N/A   Clear
6:15 PM 30.2 °F 26.7 °F 23.0 °F 75% 29.94 in 10.0 mi NNW 3.5 mph - N/A   Clear
6:35 PM 30.2 °F 24.3 °F 23.0 °F 75% 29.95 in 10.0 mi NW 5.8 mph - N/A   Clear
6:55 PM 30.2 °F 26.7 °F 24.8 °F 80% 29.93 in 10.0 mi North 3.5 mph - N/A   Clear
7:15 PM 30.2 °F 26.7 °F 23.0 °F 75% 29.93 in 10.0 mi North 3.5 mph - N/A   Clear
7:35 PM 30.2 °F 24.3 °F 23.0 °F 75% 29.96 in 10.0 mi NW 5.8 mph - N/A   Clear
7:55 PM 28.4 °F - 23.0 °F 80% 29.95 in 10.0 mi Calm Calm - N/A   Clear
8:15 PM 28.4 °F 23.3 °F 24.8 °F 86% 29.97 in 10.0 mi WNW 4.6 mph - N/A   Clear
8:35 PM 28.4 °F 23.3 °F 23.0 °F 80% 29.97 in 10.0 mi WNW 4.6 mph - N/A   Clear
8:55 PM 28.4 °F 23.3 °F 23.0 °F 80% 29.96 in 10.0 mi NW 4.6 mph - N/A   Clear
9:15 PM 28.4 °F 23.3 °F 23.0 °F 80% 29.95 in 10.0 mi North 4.6 mph - N/A   Clear
9:35 PM 28.4 °F 23.3 °F 23.0 °F 80% 29.96 in 10.0 mi NNW 4.6 mph - N/A   Clear
9:55 PM 28.4 °F 22.2 °F 23.0 °F 80% 29.95 in 10.0 mi NNW 5.8 mph - N/A   Clear
10:15 PM 28.4 °F 22.2 °F 23.0 °F 80% 29.96 in 10.0 mi NW 5.8 mph - N/A   Clear
10:35 PM 28.4 °F 23.3 °F 23.0 °F 80% 29.96 in 10.0 mi NW 4.6 mph - N/A   Clear
10:55 PM 28.4 °F 23.3 °F 23.0 °F 80% 29.95 in 10.0 mi NNW 4.6 mph - N/A   Clear
11:15 PM 28.4 °F 23.3 °F 23.0 °F 80% 29.96 in 10.0 mi NNW 4.6 mph - N/A   Clear
11:35 PM 28.4 °F 22.2 °F 23.0 °F 80% 29.96 in 10.0 mi NW 5.8 mph - N/A   Clear
11:55 PM 26.6 °F 20.0 °F 23.0 °F 86% 29.95 in 10.0 mi NNW 5.8 mph - N/A   Clear